Weather Roundup
Issued by NWS Corpus Christi, TX

Home | Current Version | Previous Version | Text Only | Print | Product List | Glossary On
Versions: 1 2 3 4 5 6 7 8 9 10 11 12 13 14 15 16 17 18 19 20 21 22 23 24 25 26 27 28 29 30 31 32 33 34 35 36 37 38 39 40 41 42 43 44 45 46 47 48 49 50
000
ASUS44 KCRP 241910
HRRCRP

SOUTH TEXAS REGIONAL WEATHER ROUNDUP
NATIONAL WEATHER SERVICE CORPUS CHRISTI TX
200 PM CDT MON APR 24 2017


TXZ229>244-242000-
...CORPUS CHRISTI AREA OBSERVATIONS...

CITY           SKY/WX    TMP DP  RH WIND       PRES   REMARKS
CORPUS CHRISTI PTSUNNY   80  55  42 SE13G21   29.89F
NAS CORPUS CHR PTSUNNY   79  57  46 SE15      29.90F
ROCKPORT       SUNNY     79  50  36 SE12G18   29.90F
KINGSVILLE NAS PTSUNNY   82  56  40 S7        29.88F
ALICE          MOSUNNY   83  51  33 SE14      29.87F
ORANGE GROVE   MOSUNNY   81  53  37 S9        29.89F
FALFURRIAS     SUNNY     83  50  32 S10G21    29.87F
$$

...VICTORIA AREA OBSERVATIONS...

CITY           SKY/WX    TMP DP  RH WIND       PRES   REMARKS
VICTORIA       SUNNY     80  49  33 MISG      29.90F
BEEVILLE       FAIR      79  51  37 S9G16     29.89F
PLEASANTON     MOSUNNY   80  48  32 S12       29.88F
SAN ANTONIO    MOSUNNY   77  48  35 S13       29.88F
$$

...LAREDO AREA OBSERVATIONS...

CITY           SKY/WX    TMP DP  RH WIND       PRES   REMARKS
LAREDO         MOSUNNY   83  52  34 S14       29.85F
COTULLA        MOSUNNY   83  47  28 SE9       29.85F
DEL RIO        NOT AVBL
MCALLEN        CLOUDY    84  56  38 SE13G21   29.88F
HEBBRONVILLE   SUNNY     79  48  34 S10G17    29.88F
$$

...OTHER TEXAS OBSERVATIONS...

CITY           SKY/WX    TMP DP  RH WIND       PRES   REMARKS
BROWNSVILLE    MOSUNNY   82  57  42 SE10      29.89F
HOUSTON        MOSUNNY   77  46  33 VRB5      29.89F
COL. STATION   SUNNY     74  46  36 S5        29.88F
AUSTIN         MOSUNNY   79  48  33 S14G20    29.87F
WACO           SUNNY     76  50  40 S13       29.85F
FORT WORTH     CLOUDY    77  48  35 S15G23    29.82F
WICHITA FALLS  CLOUDY    77  47  34 S22G29    29.74F
LUBBOCK        MOSUNNY   87  41  19 S15G25    29.71F
EL PASO        MOSUNNY   87  13   6 SW23G35   29.84F
$$

...MARINE OBSERVATIONS...

STATION/POSITION TIME  SKY/WX   TEMP    WIND        PRES    VSBY  WAVE   SWELL
                                AIR SEA DIR/SP/G                  HT/PER HT/PER
                 (UTC)          (F)     (DEG/KT/KT) (MB)    (MI)  (FT/S) (FT/S)
PORT ARANSAS     1900            72 77  140/  9/ 10 1013.0F
BUOY 90 E PORT A 1850            72 77  140/  4/  6 1013.2F         1/ 5   2/ 5
BUOY 45 SE BAFFI 1850            72     170/ 10/ 12 1012.3F         2/ 5   2/ 5
BUOY 200 E PT IS 1850            73 81  310/  4/  6 1013.5F         3/ 5   3/ 5
BUOY 15 E GALVES 1850            70 78   60/  2/  4 1013.4F         1
$$



USA.gov is the U.S. government's official web portal to all federal, state and local government web resources and services.